Hourly Data Report for June 18, 2021

MANIWAKI AIRPORT
QUEBEC
Current Station Operator: ECCC - MSC

46°16'29.000" N
75°59'31.000" W
199.70 m
7034482
71721
WMJ

Download Data

Hourly Data (June 2021)
Hourly Data Report for June 18, 2021
TIME
LST
Temp Definition
°C
Dew Point Definition
°C
Rel Hum Definition
%
Precip. Amount Definition
mm

Wind Dir Definition
10's deg

Wind Spd Definition
km/h
Visibility Definition
km
Stn Press Definition
kPa
Hmdx Definition


Wind Chill Definition


Weather Definition


00:00 16.0 5.8 51 0.0 21 9   98.69     LegendNANA
01:00 16.7 5.7 48 0.0 20 12   98.68     LegendNANA
02:00 15.7 6.0 52 0.0 19 8   98.66     LegendNANA
03:00 14.5 6.7 60 0.0 18 10   98.63     LegendNANA
04:00 14.4 6.7 60 0.0 18 11   98.54     LegendNANA
05:00 14.3 7.2 62 0.0 17 10   98.55     LegendNANA
06:00 14.8 7.8 63 0.0 18 12   98.54     LegendNANA
07:00 17.7 8.9 56 0.0 20 13   98.50     LegendNANA
08:00 16.9 10.3 65 0.0 19 15   98.47     LegendNANA
09:00 18.7 10.5 59 0.0 18 16   98.35     LegendNANA
10:00 15.1 11.8 80 0.5 19 13   98.44     LegendNANA
11:00 14.2 13.3 94 5.3 14 7   98.41     LegendNANA
12:00 14.1 13.3 95 0.7 19 9   98.46     LegendNANA
13:00 14.4 13.9 97 4.5 17 13   98.31     LegendNANA
14:00 15.1 14.6 96 0.9 18 10   98.27     LegendNANA
15:00 15.7 15.3 97 3.2 20 10   98.23     LegendNANA
16:00 15.9 15.5 97 5.5 18 7   98.18     LegendNANA
17:00 16.5 16.0 97 0.7 19 8   98.10     LegendNANA
18:00 17.0 16.4 96 0.0 17 8   98.04     LegendNANA
19:00 17.2 16.8 97 1.0 18 8   98.02     LegendNANA
20:00 17.6 17.0 96 0.1 18 14   97.96     LegendNANA
21:00 17.6 16.8 95 0.2 19 15   97.94     LegendNANA
22:00 17.1 16.4 96 0.0 21 12   97.93     LegendNANA
23:00 16.7 16.0 95 0.0 20 13   97.86     LegendNANA

Notes on Data Quality.

Legend

  • E = Estimated
  • M = Missing
  • NA = Not Available*
  • [empty] = Indicates an unobserved value
Date modified: